Time,TemperatureF,DewpointF,PressureIn,WindDirection,WindDirectionDegrees,WindSpeedMPH,WindSpeedGustMPH,Humidity,HourlyPrecipIn,Conditions,Clouds,dailyrainin,SoftwareType,DateUTC
2013-04-24 00:00:00,58.3,54.5,29.93,WSW,248,0.0,1.0,87,0.00,,---,0.00,VWS V14.01,2013-04-24 07:00:00,
2013-04-24 00:12:00,58.6,55.0,29.93,WSW,240,0.0,1.0,86,0.00,,,0.00,weatherlink.com 1.10,2013-04-24 07:12:00,
2013-04-24 00:15:00,58.7,54.5,29.93,WSW,248,0.0,1.0,86,0.00,,---,0.00,VWS V14.01,2013-04-24 07:15:00,
2013-04-24 00:27:00,58.8,55.0,29.93,WSW,240,0.0,1.0,86,0.00,,,0.00,weatherlink.com 1.10,2013-04-24 07:27:00,
2013-04-24 00:30:00,58.8,54.6,29.93,WSW,248,0.0,2.0,86,0.00,,---,0.00,VWS V14.01,2013-04-24 07:30:00,
2013-04-24 00:42:00,59.0,55.0,29.93,SW,230,1.0,3.0,87,0.00,,,0.00,weatherlink.com 1.10,2013-04-24 07:42:00,
2013-04-24 00:45:00,59.1,55.2,29.93,WSW,248,1.0,3.0,87,0.00,,---,0.00,VWS V14.01,2013-04-24 07:45:00,
2013-04-24 00:57:00,59.1,55.0,29.92,SW,229,0.0,2.0,86,0.00,,,0.00,weatherlink.com 1.10,2013-04-24 07:57:00,
2013-04-24 01:00:00,59.1,54.9,29.92,SW,225,0.0,3.0,86,0.00,,---,0.00,VWS V14.01,2013-04-24 08:00:00,
2013-04-24 01:12:00,59.2,55.0,29.92,SW,229,0.0,1.0,86,0.00,,,0.00,weatherlink.com 1.10,2013-04-24 08:12:00,
2013-04-24 01:15:00,59.2,55.0,29.92,SW,225,0.0,3.0,86,0.00,,---,0.00,VWS V14.01,2013-04-24 08:15:00,
2013-04-24 01:27:00,59.2,55.0,29.92,SW,229,0.0,2.0,85,0.00,,,0.00,weatherlink.com 1.10,2013-04-24 08:27:00,
2013-04-24 01:30:00,59.2,54.7,29.92,SW,225,0.0,2.0,85,0.00,,---,0.00,VWS V14.01,2013-04-24 08:30:00,
2013-04-24 01:42:00,59.1,55.0,29.91,SW,229,0.0,1.0,85,0.00,,,0.00,weatherlink.com 1.10,2013-04-24 08:42:00,
2013-04-24 01:45:00,59.2,54.7,29.91,SW,225,0.0,1.0,85,0.00,,---,0.00,VWS V14.01,2013-04-24 08:45:00,
2013-04-24 01:57:00,59.1,55.0,29.91,SW,229,0.0,1.0,85,0.00,,,0.00,weatherlink.com 1.10,2013-04-24 08:57:00,
2013-04-24 02:00:00,59.1,54.6,29.91,SW,225,0.0,1.0,85,0.00,,---,0.00,VWS V14.01,2013-04-24 09:00:00,
2013-04-24 02:12:00,59.1,55.0,29.91,SSW,205,0.0,3.0,85,0.00,,,0.00,weatherlink.com 1.10,2013-04-24 09:12:00,
2013-04-24 02:15:00,59.1,54.6,29.91,SW,225,1.0,3.0,85,0.00,,---,0.00,VWS V14.01,2013-04-24 09:15:00,
2013-04-24 02:27:00,59.1,55.0,29.90,SSW,205,0.0,1.0,85,0.00,,,0.00,weatherlink.com 1.10,2013-04-24 09:27:00,
2013-04-24 02:30:00,59.1,54.6,29.90,SSW,202,0.0,4.0,85,0.00,,---,0.00,VWS V14.01,2013-04-24 09:30:00,
2013-04-24 02:42:00,59.1,54.0,29.90,SSW,205,0.0,3.0,84,0.00,,,0.00,weatherlink.com 1.10,2013-04-24 09:42:00,
2013-04-24 02:45:00,59.1,54.6,29.90,SSW,202,0.0,3.0,85,0.00,,---,0.00,VWS V14.01,2013-04-24 09:45:00,
2013-04-24 02:57:00,59.1,55.0,29.90,SE,132,0.0,3.0,85,0.00,,,0.00,weatherlink.com 1.10,2013-04-24 09:57:00,
2013-04-24 03:00:00,59.1,54.6,29.90,SE,135,0.0,3.0,85,0.00,,---,0.00,VWS V14.01,2013-04-24 10:00:00,
2013-04-24 03:12:00,59.1,55.0,29.90,SE,132,0.0,1.0,85,0.00,,,0.00,weatherlink.com 1.10,2013-04-24 10:12:00,
2013-04-24 03:15:00,59.1,54.6,29.90,SE,135,0.0,1.0,85,0.00,,---,0.00,VWS V14.01,2013-04-24 10:15:00,
2013-04-24 03:27:00,59.1,55.0,29.89,SE,132,0.0,2.0,86,0.00,,,0.00,weatherlink.com 1.10,2013-04-24 10:27:00,
2013-04-24 03:30:00,59.0,54.8,29.89,SE,135,0.0,2.0,86,0.00,,---,0.00,VWS V14.01,2013-04-24 10:30:00,
2013-04-24 03:42:00,58.9,55.0,29.89,SE,132,0.0,2.0,86,0.00,,,0.00,weatherlink.com 1.10,2013-04-24 10:42:00,
2013-04-24 03:45:00,58.9,54.7,29.89,SE,135,0.0,2.0,86,0.00,,---,0.00,VWS V14.01,2013-04-24 10:45:00,
2013-04-24 03:57:00,58.9,55.0,29.89,SE,132,0.0,1.0,86,0.00,,,0.00,weatherlink.com 1.10,2013-04-24 10:57:00,
2013-04-24 04:00:00,58.9,54.7,29.89,SE,135,0.0,1.0,86,0.00,,---,0.00,VWS V14.01,2013-04-24 11:00:00,
2013-04-24 04:12:00,58.8,55.0,29.89,SE,132,0.0,0.0,86,0.00,,,0.00,weatherlink.com 1.10,2013-04-24 11:12:00,
2013-04-24 04:15:00,58.8,54.6,29.89,SE,135,0.0,0.0,86,0.00,,---,0.00,VWS V14.01,2013-04-24 11:15:00,
2013-04-24 04:27:00,58.8,55.0,29.88,SE,132,0.0,0.0,86,0.00,,,0.00,weatherlink.com 1.10,2013-04-24 11:27:00,
2013-04-24 04:30:00,58.8,54.6,29.88,SE,135,0.0,1.0,86,0.00,,---,0.00,VWS V14.01,2013-04-24 11:30:00,
2013-04-24 04:43:00,58.8,55.0,29.89,SE,132,0.0,0.0,87,0.00,,,0.00,weatherlink.com 1.10,2013-04-24 11:43:00,
2013-04-24 04:45:00,58.8,55.0,29.89,SE,135,0.0,0.0,87,0.00,,---,0.00,VWS V14.01,2013-04-24 11:45:00,
2013-04-24 04:58:00,58.7,55.0,29.89,SE,132,0.0,0.0,88,0.00,,,0.00,weatherlink.com 1.10,2013-04-24 11:58:00,
2013-04-24 05:00:00,58.7,55.2,29.89,SE,135,0.0,0.0,88,0.00,,---,0.00,VWS V14.01,2013-04-24 12:00:00,
2013-04-24 05:13:00,58.8,55.0,29.89,SE,132,0.0,2.0,88,0.00,,,0.00,weatherlink.com 1.10,2013-04-24 12:13:00,
2013-04-24 05:15:00,58.8,55.3,29.88,SE,135,0.0,2.0,88,0.00,,---,0.00,VWS V14.01,2013-04-24 12:15:00,
2013-04-24 05:28:00,58.8,56.0,29.88,SE,132,1.0,2.0,89,0.00,,,0.00,weatherlink.com 1.10,2013-04-24 12:28:00,
2013-04-24 05:30:00,58.8,55.6,29.88,SE,135,0.0,2.0,89,0.00,,---,0.00,VWS V14.01,2013-04-24 12:30:00,
2013-04-24 05:43:00,58.8,56.0,29.89,SE,132,0.0,2.0,90,0.00,,,0.00,weatherlink.com 1.10,2013-04-24 12:43:00,
2013-04-24 05:45:00,58.7,55.8,29.89,SE,135,0.0,2.0,90,0.00,,---,0.00,VWS V14.01,2013-04-24 12:45:00,
2013-04-24 05:58:00,58.6,56.0,29.89,SE,132,0.0,3.0,90,0.00,,,0.00,weatherlink.com 1.10,2013-04-24 12:58:00,
2013-04-24 06:00:00,58.6,55.7,29.89,SE,135,0.0,3.0,90,0.00,,---,0.00,VWS V14.01,2013-04-24 13:00:00,
2013-04-24 06:13:00,58.6,56.0,29.89,SE,132,1.0,2.0,90,0.00,,,0.00,weatherlink.com 1.10,2013-04-24 13:13:00,
2013-04-24 06:15:00,58.6,55.7,29.89,SE,135,0.0,2.0,90,0.00,,---,0.00,VWS V14.01,2013-04-24 13:15:00,
2013-04-24 06:28:00,58.5,56.0,29.89,SE,132,0.0,1.0,91,0.00,,,0.00,weatherlink.com 1.10,2013-04-24 13:28:00,
2013-04-24 06:30:00,58.6,56.0,29.89,SE,135,0.0,2.0,91,0.00,,---,0.00,VWS V14.01,2013-04-24 13:30:00,
2013-04-24 06:43:00,58.5,56.0,29.89,SE,132,2.0,3.0,91,0.00,,,0.00,weatherlink.com 1.10,2013-04-24 13:43:00,
2013-04-24 06:45:00,58.5,55.9,29.89,SE,135,0.0,3.0,91,0.00,,---,0.00,VWS V14.01,2013-04-24 13:45:00,
2013-04-24 06:58:00,58.5,56.0,29.90,SE,132,0.0,0.0,91,0.00,,,0.00,weatherlink.com 1.10,2013-04-24 13:58:00,
2013-04-24 07:00:00,58.5,55.9,29.90,SE,135,0.0,1.0,91,0.00,,---,0.00,VWS V14.01,2013-04-24 14:00:00,
2013-04-24 07:13:00,58.6,56.0,29.90,SE,132,0.0,0.0,91,0.00,,,0.00,weatherlink.com 1.10,2013-04-24 14:13:00,
2013-04-24 07:15:00,58.6,56.0,29.90,SE,135,0.0,0.0,91,0.00,,---,0.00,VWS V14.01,2013-04-24 14:15:00,
2013-04-24 07:28:00,58.9,56.0,29.91,SE,132,0.0,3.0,91,0.00,,,0.00,weatherlink.com 1.10,2013-04-24 14:28:00,
2013-04-24 07:30:00,58.9,56.3,29.91,SE,135,0.0,3.0,91,0.00,,---,0.00,VWS V14.01,2013-04-24 14:30:00,
2013-04-24 07:43:00,59.1,56.0,29.91,SE,132,0.0,2.0,90,0.00,,,0.00,weatherlink.com 1.10,2013-04-24 14:43:00,
2013-04-24 07:45:00,59.1,56.2,29.91,SE,135,0.0,2.0,90,0.00,,---,0.00,VWS V14.01,2013-04-24 14:45:00,
2013-04-24 07:58:00,59.4,56.0,29.91,SE,134,0.0,3.0,89,0.00,,,0.00,weatherlink.com 1.10,2013-04-24 14:58:00,
2013-04-24 08:00:00,59.3,56.1,29.91,SE,135,0.0,4.0,89,0.00,,---,0.00,VWS V14.01,2013-04-24 15:00:00,
2013-04-24 08:13:00,59.6,57.0,29.92,SE,134,0.0,2.0,90,0.00,,,0.00,weatherlink.com 1.10,2013-04-24 15:13:00,
2013-04-24 08:15:00,59.6,56.7,29.92,SE,135,0.0,2.0,90,0.00,,---,0.00,VWS V14.01,2013-04-24 15:15:00,
2013-04-24 08:28:00,59.9,56.0,29.92,SE,134,0.0,2.0,88,0.00,,,0.00,weatherlink.com 1.10,2013-04-24 15:28:00,
2013-04-24 08:30:00,59.9,56.3,29.92,SE,135,0.0,2.0,88,0.00,,---,0.00,VWS V14.01,2013-04-24 15:30:00,
2013-04-24 08:43:00,60.4,57.0,29.92,ESE,113,1.0,3.0,87,0.00,,,0.00,weatherlink.com 1.10,2013-04-24 15:43:00,
2013-04-24 08:45:00,60.4,56.2,29.92,ESE,112,0.0,3.0,86,0.00,,---,0.00,VWS V14.01,2013-04-24 15:45:00,
2013-04-24 08:58:00,60.9,56.0,29.91,ESE,115,1.0,2.0,85,0.00,,,0.00,weatherlink.com 1.10,2013-04-24 15:58:00,
2013-04-24 09:00:00,61.0,56.5,29.92,ESE,112,0.0,3.0,85,0.00,,---,0.00,VWS V14.01,2013-04-24 16:00:00,
2013-04-24 09:13:00,61.4,56.0,29.92,ESE,117,1.0,2.0,82,0.00,,,0.00,weatherlink.com 1.10,2013-04-24 16:13:00,
2013-04-24 09:15:00,61.4,56.2,29.92,ESE,112,0.0,2.0,83,0.00,,---,0.00,VWS V14.01,2013-04-24 16:15:00,
2013-04-24 09:28:00,61.5,57.0,29.92,South,187,2.0,6.0,84,0.00,,,0.00,weatherlink.com 1.10,2013-04-24 16:28:00,
2013-04-24 09:30:00,61.4,56.5,29.92,SE,135,1.0,6.0,84,0.00,,---,0.00,VWS V14.01,2013-04-24 16:30:00,
2013-04-24 09:43:00,60.9,56.0,29.93,SW,216,2.0,8.0,85,0.00,,,0.00,weatherlink.com 1.10,2013-04-24 16:43:00,
2013-04-24 09:45:00,60.8,56.3,29.93,SSW,202,3.0,8.0,85,0.00,,---,0.00,VWS V14.01,2013-04-24 16:45:00,
2013-04-24 09:58:00,60.2,56.0,29.93,SSE,168,3.0,7.0,87,0.00,,,0.00,weatherlink.com 1.10,2013-04-24 16:58:00,
2013-04-24 10:06:00,60.8,56.3,29.93,SSW,202,3.0,8.0,85,0.00,,---,0.00,VWS V14.01,2013-04-24 17:06:00,
2013-04-24 10:11:00,59.6,56.4,29.94,SSW,208,2.0,7.0,89,0.00,,---,0.00,VWS V14.01,2013-04-24 17:11:00,
2013-04-24 10:16:00,59.4,56.2,29.94,SSW,193,5.0,5.0,89,0.00,,---,0.00,VWS V14.01,2013-04-24 17:16:00,
2013-04-24 10:21:00,59.2,56.3,29.94,SSE,168,0.0,5.0,90,0.00,,---,0.00,VWS V14.01,2013-04-24 17:21:00,
2013-04-24 10:26:00,59.2,56.6,29.94,SSW,205,5.0,5.0,91,0.00,,---,0.00,VWS V14.01,2013-04-24 17:26:00,
2013-04-24 10:31:00,59.0,56.1,29.94,South,171,3.0,6.0,90,0.00,,---,0.00,VWS V14.01,2013-04-24 17:31:00,
2013-04-24 10:36:00,59.0,56.1,29.94,SSW,208,4.0,6.0,90,0.00,,---,0.00,VWS V14.01,2013-04-24 17:36:00,
2013-04-24 10:41:00,59.0,56.1,29.94,South,176,4.0,6.0,90,0.00,,---,0.00,VWS V14.01,2013-04-24 17:41:00,
2013-04-24 10:46:00,59.1,56.2,29.94,South,173,3.0,5.0,90,0.00,,---,0.00,VWS V14.01,2013-04-24 17:46:00,
2013-04-24 10:51:00,59.3,56.4,29.94,South,171,2.0,5.0,90,0.00,,---,0.00,VWS V14.01,2013-04-24 17:51:00,
2013-04-24 10:56:00,59.3,56.1,29.94,South,184,1.0,5.0,89,0.00,,---,0.00,VWS V14.01,2013-04-24 17:56:00,
2013-04-24 11:00:00,59.4,56.2,29.94,South,180,3.0,7.0,89,0.00,,---,0.00,VWS V14.01,2013-04-24 18:00:00,
2013-04-24 11:02:00,59.4,56.0,29.94,South,169,3.0,8.0,88,0.00,,,0.00,weatherlink.com 1.10,2013-04-24 18:02:00,
2013-04-24 11:15:00,59.5,56.0,29.94,SSW,202,4.0,9.0,88,0.00,,---,0.00,VWS V14.01,2013-04-24 18:15:00,
2013-04-24 11:17:00,59.5,56.0,29.95,SSW,209,5.0,9.0,88,0.00,,,0.00,weatherlink.com 1.10,2013-04-24 18:17:00,
2013-04-24 11:30:00,59.7,55.8,29.94,SSW,202,3.0,8.0,87,0.00,,---,0.00,VWS V14.01,2013-04-24 18:30:00,
2013-04-24 11:32:00,59.8,56.0,29.95,SSW,196,4.0,8.0,87,0.00,,,0.00,weatherlink.com 1.10,2013-04-24 18:32:00,
2013-04-24 11:45:00,59.9,56.0,29.94,SSW,202,3.0,8.0,87,0.00,,---,0.00,VWS V14.01,2013-04-24 18:45:00,
2013-04-24 11:47:00,60.0,56.0,29.94,South,183,2.0,7.0,86,0.00,,,0.00,weatherlink.com 1.10,2013-04-24 18:47:00,
2013-04-24 12:00:00,60.0,55.5,29.94,SSW,202,3.0,9.0,85,0.00,,---,0.00,VWS V14.01,2013-04-24 19:00:00,
2013-04-24 12:02:00,60.2,56.0,29.94,SSW,193,1.0,7.0,85,0.00,,,0.00,weatherlink.com 1.10,2013-04-24 19:02:00,
2013-04-24 12:15:00,60.5,55.7,29.94,SSW,202,3.0,8.0,84,0.00,,---,0.00,VWS V14.01,2013-04-24 19:15:00,
2013-04-24 12:17:00,60.6,55.0,29.94,SW,218,3.0,7.0,83,0.00,,,0.00,weatherlink.com 1.10,2013-04-24 19:17:00,
2013-04-24 12:30:00,60.7,55.2,29.94,SSW,202,3.0,7.0,82,0.00,,---,0.00,VWS V14.01,2013-04-24 19:30:00,
2013-04-24 12:32:00,60.7,55.0,29.94,SSW,213,3.0,7.0,82,0.00,,,0.00,weatherlink.com 1.10,2013-04-24 19:32:00,
2013-04-24 12:45:00,60.8,54.9,29.94,SW,225,3.0,8.0,81,0.00,,---,0.00,VWS V14.01,2013-04-24 19:45:00,
2013-04-24 12:47:00,60.8,55.0,29.94,WSW,256,4.0,9.0,80,0.00,,,0.00,weatherlink.com 1.10,2013-04-24 19:47:00,
2013-04-24 13:00:00,60.9,55.0,29.93,SSW,202,4.0,9.0,81,0.00,,---,0.00,VWS V14.01,2013-04-24 20:00:00,
2013-04-24 13:02:00,60.9,55.0,29.93,SW,229,2.0,7.0,80,0.00,,,0.00,weatherlink.com 1.10,2013-04-24 20:02:00,
2013-04-24 13:15:00,61.0,54.8,29.94,SSW,202,3.0,8.0,80,0.00,,---,0.00,VWS V14.01,2013-04-24 20:15:00,
2013-04-24 13:17:00,61.2,55.0,29.94,SSW,212,1.0,7.0,80,0.00,,,0.00,weatherlink.com 1.10,2013-04-24 20:17:00,
2013-04-24 13:30:00,61.4,54.8,29.94,SSW,202,2.0,7.0,79,0.00,,---,0.00,VWS V14.01,2013-04-24 20:30:00,
2013-04-24 13:32:00,61.4,55.0,29.94,SW,229,2.0,7.0,79,0.00,,,0.00,weatherlink.com 1.10,2013-04-24 20:32:00,
2013-04-24 13:45:00,61.8,54.9,29.93,SSW,202,3.0,10.0,78,0.00,,---,0.00,VWS V14.01,2013-04-24 20:45:00,
2013-04-24 13:47:00,62.0,55.0,29.93,South,178,4.0,10.0,77,0.00,,,0.00,weatherlink.com 1.10,2013-04-24 20:47:00,
2013-04-24 14:00:00,62.6,54.6,29.93,SSW,202,4.0,10.0,75,0.00,,---,0.00,VWS V14.01,2013-04-24 21:00:00,
2013-04-24 14:02:00,62.7,55.0,29.93,South,186,5.0,9.0,75,0.00,,,0.00,weatherlink.com 1.10,2013-04-24 21:02:00,
2013-04-24 14:15:00,63.3,55.2,29.92,SSW,202,2.0,9.0,75,0.00,,---,0.00,VWS V14.01,2013-04-24 21:15:00,
2013-04-24 14:17:00,63.7,56.0,29.92,SW,229,2.0,7.0,75,0.00,,,0.00,weatherlink.com 1.10,2013-04-24 21:17:00,
2013-04-24 14:30:00,63.4,55.0,29.92,SSW,202,3.0,9.0,74,0.00,,---,0.00,VWS V14.01,2013-04-24 21:30:00,
2013-04-24 14:32:00,63.4,55.0,29.92,South,181,3.0,9.0,74,0.00,,,0.00,weatherlink.com 1.10,2013-04-24 21:32:00,
2013-04-24 14:45:00,63.5,54.7,29.92,SSW,202,3.0,9.0,73,0.00,,---,0.00,VWS V14.01,2013-04-24 21:45:00,
2013-04-24 14:47:00,63.4,55.0,29.92,SW,214,4.0,8.0,73,0.00,,,0.00,weatherlink.com 1.10,2013-04-24 21:47:00,
2013-04-24 15:00:00,63.0,54.2,29.92,SW,225,2.0,7.0,73,0.00,,---,0.00,VWS V14.01,2013-04-24 22:00:00,
2013-04-24 15:02:00,63.0,54.0,29.92,SSW,204,3.0,5.0,73,0.00,,,0.00,weatherlink.com 1.10,2013-04-24 22:02:00,
2013-04-24 15:15:00,62.9,54.1,29.92,South,180,2.0,7.0,73,0.00,,---,0.00,VWS V14.01,2013-04-24 22:15:00,
2013-04-24 15:17:00,62.9,54.0,29.92,South,188,4.0,8.0,73,0.00,,,0.00,weatherlink.com 1.10,2013-04-24 22:17:00,
2013-04-24 15:30:00,62.9,53.8,29.91,South,180,3.0,8.0,72,0.00,,---,0.00,VWS V14.01,2013-04-24 22:30:00,
2013-04-24 15:32:00,62.9,54.0,29.91,SSW,196,3.0,7.0,72,0.00,,,0.00,weatherlink.com 1.10,2013-04-24 22:32:00,
2013-04-24 15:45:00,63.4,53.8,29.91,South,180,2.0,6.0,71,0.00,,---,0.00,VWS V14.01,2013-04-24 22:45:00,
2013-04-24 15:47:00,63.6,54.0,29.91,South,182,4.0,6.0,70,0.00,,,0.00,weatherlink.com 1.10,2013-04-24 22:47:00,
2013-04-24 16:00:00,63.9,53.9,29.91,SSW,202,3.0,8.0,70,0.00,,---,0.00,VWS V14.01,2013-04-24 23:00:00,
2013-04-24 16:02:00,64.0,54.0,29.91,SSW,212,3.0,8.0,70,0.00,,,0.00,weatherlink.com 1.10,2013-04-24 23:02:00,
2013-04-24 16:15:00,63.9,53.9,29.90,SSW,202,2.0,7.0,70,0.00,,---,0.00,VWS V14.01,2013-04-24 23:15:00,
2013-04-24 16:17:00,63.9,54.0,29.90,SSW,206,1.0,7.0,69,0.00,,,0.00,weatherlink.com 1.10,2013-04-24 23:17:00,
2013-04-24 16:30:00,63.8,53.5,29.90,South,180,2.0,5.0,69,0.00,,---,0.00,VWS V14.01,2013-04-24 23:30:00,
2013-04-24 16:32:00,63.9,53.0,29.90,SSW,194,2.0,6.0,68,0.00,,,0.00,weatherlink.com 1.10,2013-04-24 23:32:00,
2013-04-24 16:45:00,64.0,52.8,29.90,South,180,2.0,6.0,67,0.00,,---,0.00,VWS V14.01,2013-04-24 23:45:00,
2013-04-24 16:47:00,63.9,53.0,29.90,SSE,166,0.0,6.0,68,0.00,,,0.00,weatherlink.com 1.10,2013-04-24 23:47:00,
2013-04-24 17:00:00,64.3,52.7,29.90,WSW,248,1.0,6.0,66,0.00,,---,0.00,VWS V14.01,2013-04-25 00:00:00,
2013-04-24 17:02:00,64.7,53.0,29.90,South,171,0.0,6.0,66,0.00,,,0.00,weatherlink.com 1.10,2013-04-25 00:02:00,
2013-04-24 17:15:00,65.4,53.3,29.90,SSW,202,2.0,6.0,65,0.00,,---,0.00,VWS V14.01,2013-04-25 00:15:00,
2013-04-24 17:18:00,65.5,52.0,29.90,SSW,199,3.0,5.0,63,0.00,,,0.00,weatherlink.com 1.10,2013-04-25 00:18:00,
2013-04-24 17:30:00,65.9,53.8,29.90,SSW,202,1.0,6.0,65,0.00,,---,0.00,VWS V14.01,2013-04-25 00:30:00,
2013-04-24 17:33:00,66.1,53.0,29.90,SW,217,0.0,6.0,64,0.00,,,0.00,weatherlink.com 1.10,2013-04-25 00:33:00,
2013-04-24 17:45:00,66.8,54.7,29.90,South,180,2.0,5.0,65,0.00,,---,0.00,VWS V14.01,2013-04-25 00:45:00,
2013-04-24 17:48:00,67.2,54.0,29.90,SE,146,3.0,5.0,63,0.00,,,0.00,weatherlink.com 1.10,2013-04-25 00:48:00,
2013-04-24 18:00:00,66.6,52.8,29.91,South,180,2.0,8.0,61,0.00,,---,0.00,VWS V14.01,2013-04-25 01:00:00,
2013-04-24 18:03:00,66.1,52.0,29.91,SSW,196,1.0,6.0,60,0.00,,,0.00,weatherlink.com 1.10,2013-04-25 01:03:00,
2013-04-24 18:15:00,65.0,52.5,29.91,SSW,202,2.0,6.0,64,0.00,,---,0.00,VWS V14.01,2013-04-25 01:15:00,
2013-04-24 18:18:00,64.7,53.0,29.91,SSE,163,1.0,4.0,65,0.00,,,0.00,weatherlink.com 1.10,2013-04-25 01:18:00,
2013-04-24 18:30:00,64.0,53.2,29.91,South,180,1.0,5.0,68,0.00,,---,0.00,VWS V14.01,2013-04-25 01:30:00,
2013-04-24 18:33:00,63.7,53.0,29.91,SSE,159,1.0,5.0,69,0.00,,,0.00,weatherlink.com 1.10,2013-04-25 01:33:00,
2013-04-24 18:45:00,63.1,53.6,29.91,SSE,158,1.0,4.0,71,0.00,,---,0.00,VWS V14.01,2013-04-25 01:45:00,
2013-04-24 18:48:00,63.0,54.0,29.91,South,175,0.0,3.0,72,0.00,,,0.00,weatherlink.com 1.10,2013-04-25 01:48:00,
2013-04-24 19:00:00,62.7,53.5,29.91,South,180,1.0,4.0,72,0.00,,---,0.00,VWS V14.01,2013-04-25 02:00:00,
2013-04-24 19:03:00,62.6,53.0,29.91,South,181,0.0,4.0,72,0.00,,,0.00,weatherlink.com 1.10,2013-04-25 02:03:00,
2013-04-24 19:15:00,62.3,53.2,29.91,South,180,1.0,4.0,72,0.00,,---,0.00,VWS V14.01,2013-04-25 02:15:00,
2013-04-24 19:18:00,62.2,53.0,29.91,South,183,0.0,5.0,72,0.00,,,0.00,weatherlink.com 1.10,2013-04-25 02:18:00,
2013-04-24 19:30:00,61.9,52.8,29.91,South,180,2.0,5.0,72,0.00,,---,0.00,VWS V14.01,2013-04-25 02:30:00,
2013-04-24 19:33:00,61.8,53.0,29.91,SSW,209,3.0,5.0,73,0.00,,,0.00,weatherlink.com 1.10,2013-04-25 02:33:00,
2013-04-24 19:45:00,61.5,53.2,29.91,SSW,202,2.0,5.0,74,0.00,,---,0.00,VWS V14.01,2013-04-25 02:45:00,
2013-04-24 19:48:00,61.4,53.0,29.91,SSW,196,4.0,5.0,74,0.00,,,0.00,weatherlink.com 1.10,2013-04-25 02:48:00,
2013-04-24 20:00:00,61.1,53.1,29.92,South,180,2.0,5.0,75,0.00,,---,0.00,VWS V14.01,2013-04-25 03:00:00,
2013-04-24 20:03:00,61.0,53.0,29.92,South,182,2.0,5.0,75,0.00,,,0.00,weatherlink.com 1.10,2013-04-25 03:03:00,
2013-04-24 20:15:00,60.8,53.5,29.92,South,180,2.0,6.0,77,0.00,,---,0.00,VWS V14.01,2013-04-25 03:15:00,
2013-04-24 20:18:00,60.7,53.0,29.92,SW,218,6.0,9.0,77,0.00,,,0.00,weatherlink.com 1.10,2013-04-25 03:18:00,
2013-04-24 20:30:00,60.4,53.2,29.93,South,180,4.0,9.0,77,0.00,,---,0.00,VWS V14.01,2013-04-25 03:30:00,
2013-04-24 20:33:00,60.4,53.0,29.93,South,177,4.0,8.0,77,0.00,,,0.00,weatherlink.com 1.10,2013-04-25 03:33:00,
2013-04-24 20:45:00,60.3,53.1,29.93,South,180,3.0,7.0,77,0.00,,---,0.00,VWS V14.01,2013-04-25 03:45:00,
2013-04-24 20:48:00,60.3,53.0,29.94,South,178,0.0,5.0,77,0.00,,,0.00,weatherlink.com 1.10,2013-04-25 03:48:00,
2013-04-24 21:00:00,60.2,53.3,29.94,South,180,2.0,7.0,78,0.00,,---,0.00,VWS V14.01,2013-04-25 04:00:00,
2013-04-24 21:03:00,60.2,53.0,29.95,South,182,0.0,4.0,78,0.00,,,0.00,weatherlink.com 1.10,2013-04-25 04:03:00,
2013-04-24 21:15:00,60.2,53.0,29.94,South,180,1.0,5.0,77,0.00,,---,0.00,VWS V14.01,2013-04-25 04:15:00,
2013-04-24 21:18:00,60.2,53.0,29.94,SSW,200,3.0,5.0,78,0.00,,,0.00,weatherlink.com 1.10,2013-04-25 04:18:00,
2013-04-24 21:30:00,60.2,53.7,29.95,South,180,2.0,5.0,79,0.00,,---,0.00,VWS V14.01,2013-04-25 04:30:00,
2013-04-24 21:33:00,60.2,54.0,29.95,SSE,165,0.0,4.0,79,0.00,,,0.00,weatherlink.com 1.10,2013-04-25 04:33:00,
2013-04-24 21:45:00,60.1,53.6,29.95,South,180,1.0,5.0,79,0.00,,---,0.00,VWS V14.01,2013-04-25 04:45:00,
2013-04-24 21:48:00,60.1,54.0,29.95,SSE,153,0.0,5.0,80,0.00,,,0.00,weatherlink.com 1.10,2013-04-25 04:48:00,
2013-04-24 22:00:00,59.8,54.3,29.96,South,180,1.0,5.0,82,0.00,,---,0.00,VWS V14.01,2013-04-25 05:00:00,
2013-04-24 22:03:00,59.6,54.0,29.96,SSE,167,0.0,2.0,82,0.00,,,0.00,weatherlink.com 1.10,2013-04-25 05:03:00,
2013-04-24 22:15:00,59.4,54.2,29.96,SSE,158,0.0,2.0,83,0.00,,---,0.00,VWS V14.01,2013-04-25 05:15:00,
2013-04-24 22:18:00,59.3,54.0,29.96,SSE,159,0.0,2.0,83,0.00,,,0.00,weatherlink.com 1.10,2013-04-25 05:18:00,
2013-04-24 22:30:00,59.2,54.0,29.96,SSE,158,0.0,1.0,83,0.00,,---,0.00,VWS V14.01,2013-04-25 05:30:00,
2013-04-24 22:33:00,59.1,54.0,29.96,SSE,159,0.0,1.0,83,0.00,,,0.00,weatherlink.com 1.10,2013-04-25 05:33:00,
2013-04-24 22:45:00,59.1,54.0,29.96,SSE,158,0.0,1.0,83,0.00,,---,0.00,VWS V14.01,2013-04-25 05:45:00,
2013-04-24 22:48:00,59.1,54.0,29.96,SSE,159,0.0,2.0,83,0.00,,,0.00,weatherlink.com 1.10,2013-04-25 05:48:00,
2013-04-24 23:00:00,59.1,54.0,29.96,SSW,202,0.0,2.0,83,0.00,,---,0.00,VWS V14.01,2013-04-25 06:00:00,
2013-04-24 23:03:00,59.1,54.0,29.96,SW,220,0.0,2.0,84,0.00,,,0.00,weatherlink.com 1.10,2013-04-25 06:03:00,
2013-04-24 23:15:00,59.1,54.3,29.96,SW,225,0.0,3.0,84,0.00,,---,0.00,VWS V14.01,2013-04-25 06:15:00,
2013-04-24 23:18:00,59.0,54.0,29.96,South,182,1.0,3.0,84,0.00,,,0.00,weatherlink.com 1.10,2013-04-25 06:18:00,
2013-04-24 23:30:00,59.0,54.5,29.96,South,180,0.0,2.0,85,0.00,,---,0.00,VWS V14.01,2013-04-25 06:30:00,
2013-04-24 23:33:00,59.0,55.0,29.96,South,182,0.0,0.0,85,0.00,,,0.00,weatherlink.com 1.10,2013-04-25 06:33:00,
2013-04-24 23:45:00,58.9,54.1,29.96,South,180,0.0,2.0,84,0.00,,---,0.00,VWS V14.01,2013-04-25 06:45:00,
2013-04-24 23:48:00,58.9,54.0,29.96,South,184,0.0,2.0,84,0.00,,,0.00,weatherlink.com 1.10,2013-04-25 06:48:00,